This is the latest recevied weather packets stored in our database for station/object KI4FRU. If no packets are shown the sender has not sent any weather packets the latest 1 day(s).
| Time | Temp. | Humidity | Pressure | Rain* | Wind** | Luminosity | Snow |
|---|---|---|---|---|---|---|---|
| 1778096183 | 23.89° C | 84% | 1051.8 hPa | 0 mm | - | 363 W/m² | - |
| 1778094969 | 24.44° C | 85% | 1051.3 hPa | 0 mm | - | 115 W/m² | - |
| 1778093448 | 22.22° C | 92% | 1051.8 hPa | 0 mm | - | 269 W/m² | - |
| 1778093145 | 22.22° C | 89% | 1051.8 hPa | 0 mm | - | 229 W/m² | - |
| 1778091932 | 22.22° C | 94% | 1051.7 hPa | 0 mm | - | 169 W/m² | - |
| 1778091629 | 21.67° C | 95% | 1051.5 hPa | 0 mm | - | 324 W/m² | - |
| 1778091327 | 21.11° C | 97% | 1051.7 hPa | 0 mm | - | 299 W/m² | - |
| 1778090720 | 20.56° C | 99% | 1052.1 hPa | 0 mm | - | 183 W/m² | - |
| 1778090113 | 20° C | 99% | 1051.8 hPa | 0 mm | - | 212 W/m² | - |
| 1778088902 | 20° C | 99% | 1052.1 hPa | 0 mm | - | 319 W/m² | - |
| 1778088599 | 18.89° C | 99% | 1052.5 hPa | 0 mm | - | 334 W/m² | - |
| 1778087992 | 17.78° C | 99% | 1053.3 hPa | 0 mm | - | 294 W/m² | - |
| 1778087387 | 18.33° C | 99% | 1053.3 hPa | 0 mm | - | 170 W/m² | - |
| 1778086782 | 17.78° C | 99% | 1053.8 hPa | 0 mm | - | 147 W/m² | - |
| 1778085571 | 18.33° C | 99% | 1054 hPa | 3.05 mm | - | 99 W/m² | - |
| 1778084659 | 20° C | 99% | 1054.2 hPa | 0 mm | - | 99 W/m² | - |
| 1778084356 | 20° C | 97% | 1053.8 hPa | 0 mm | - | 90 W/m² | - |
| 1778084054 | 20° C | 95% | 1053.7 hPa | 0 mm | - | 84 W/m² | - |
| 1778083140 | 20.56° C | 94% | 1053.5 hPa | 0 mm | - | 83 W/m² | - |
| 1778081411 | 20.56° C | 87% | 1052.7 hPa | 0 mm | - | 66 W/m² | - |
| 1778078988 | 20° C | 89% | 1052 hPa | 0 mm | - | 94 W/m² | - |
| 1778078684 | 20° C | 88% | 1052.1 hPa | 0 mm | - | 79 W/m² | - |
| 1778078079 | 20° C | 87% | 1052.4 hPa | 0 mm | - | 53 W/m² | - |
| 1778077475 | 20° C | 88% | 1052.6 hPa | 0 mm | - | 24 W/m² | - |
| 1778077173 | 20° C | 89% | 1052.6 hPa | 0 mm | - | 98 W/m² | - |
* Rain latest hour (hover to see other rain measurements)
** Current wind speed in m/s (hover to see current wind gust speed)